User: anonymous   Login
Location: Plum
(40.5000°N, 79.7500°W)
Time: 13:00:40
(UTC-05:00)
Language:

MOZ.5/SAFIR/RUBIN 5/SL-8 - Orbit

View from above orbital plane
View from above orbital plane
View from above satellite
View from above satellite

Ground track
Ground track

The orbit data is extracted from the following two-line orbital elements,

1 28898U 05043G   14331.53180272  .00000658  00000-0  14699-3 0  9886
2 28898 097.8348 152.0973 0019086 239.4516 184.9250 14.59649963483759
Epoch (UTC): 27 November 2014 12:45:47
Eccentricity: 0.0019086
inclination: 97.8348°
perigee height: 681 km
apogee height: 708 km
right ascension of ascending node: 152.0973°
argument of perigee: 239.4516°
revolutions per day: 14.59649963
mean anomaly at epoch: 184.9250°
orbit number at epoch: 48375

The dashed part of the orbit path shows where the satellite is in the earth's shadow,  

DLR